XJS G (45611 NORAD) Tracking and Keplerian Element Data

This shows tracking and keplerian element data for the satellite.

Feedback or suggestion? Click here.




ElementValue
Catalog45611
NameXJS G
Epoch Orbit597
Epoch Day190.04354167
Epoch Year2020
RAAN279.1804
Inclination35.0334
Eccentricity0.00146
Argument of Perigee297.0015
Mean Anonmoly67.5013
Mean Motion15.29887316
Decay Rate6.62E-06
L11 45611U 20032A 20190.04354167 .00000662 00000-0 23637-4 0 9995
L22 45611 35.0334 279.1804 0014600 297.0015 67.5013 15.29887316 5976

Live tracking and technical data element details for XJS G (NORAD 45611). XJS G can be tracked NOW for your location showing map with azimuth and elevation plus other details from your city location.

Track the satellite on the map from your city or location and see movement details for azimuth, elevation, latitude, longitude, range, height, and movement on the map or in text.







IsCatalogInMostPopularTable: catalog: 45611, numindb: 13
Update: records affected: 1



GetName: 45611 XJS G

Hit Count: updated at: Fri, 10 Jul 2020 03:58:08 GMT